| time (UTC) | temp F | wind direction | speed MPH | gust MPH | rain 1hr in | rain 24hr in | rain mn in | humidity % | barometer mb |
| 20260505213858 | 53 | 360 | 14.0 | 23.0 | 0.00 | 0.00 | 0.00 | 74 | |
| 20260505213334 | 53 | 360 | 15.0 | 27.0 | 0.00 | 0.00 | 0.00 | 74 | |
| 20260505212832 | 53 | 360 | 15.0 | 24.0 | 0.00 | 0.00 | 0.00 | 74 | |
| 20260505212329 | 53 | 360 | 16.0 | 23.0 | 0.00 | 0.00 | 0.00 | 74 | |
| 20260505211847 | 53 | 360 | 14.0 | 24.0 | 0.00 | 0.00 | 0.00 | 74 | |
| 20260505211344 | 53 | 360 | 15.0 | 26.0 | 0.00 | 0.00 | 0.00 | 74 | |
| 20260505210841 | 53 | 360 | 17.0 | 26.0 | 0.00 | 0.00 | 0.00 | 75 | |
| 20260505210339 | 53 | 360 | 14.0 | 23.0 | 0.00 | 0.00 | 0.00 | 75 | |
| 20260505205839 | 53 | 360 | 13.0 | 24.0 | 0.00 | 0.00 | 0.00 | 75 | |
| 20260505205335 | 53 | 360 | 16.0 | 24.0 | 0.00 | 0.00 | 0.00 | 75 | |
| 20260505204833 | 53 | 360 | 16.0 | 23.0 | 0.00 | 0.00 | 0.00 | 75 | |
| 20260505204330 | 53 | 360 | 14.0 | 25.0 | 0.00 | 0.00 | 0.00 | 75 | |
| 20260505203829 | 53 | 360 | 19.0 | 25.0 | 0.00 | 0.00 | 0.00 | 75 | |
| 20260505203346 | 53 | 360 | 13.0 | 22.0 | 0.00 | 0.00 | 0.00 | 75 | |
| 20260505202844 | 53 | 360 | 13.0 | 25.0 | 0.00 | 0.00 | 0.00 | 75 | |
| 20260505202345 | 52 | 360 | 19.0 | 25.0 | 0.00 | 0.00 | 0.00 | 75 | |
| 20260505201842 | 53 | 360 | 13.0 | 24.0 | 0.00 | 0.00 | 0.00 | 75 | |
| 20260505201338 | 52 | 360 | 15.0 | 24.0 | 0.00 | 0.00 | 0.00 | 75 | |
| 20260505200837 | 53 | 360 | 15.0 | 23.0 | 0.00 | 0.00 | 0.00 | 75 | |
| 20260505200335 | 53 | 360 | 17.0 | 22.0 | 0.00 | 0.00 | 0.00 | 75 | |
| 20260505195853 | 53 | 360 | 12.0 | 17.0 | 0.00 | 0.00 | 0.00 | 75 | |
| 20260505195329 | 53 | 360 | 11.0 | 23.0 | 0.00 | 0.00 | 0.00 | 75 | |
| 20260505194847 | 53 | 360 | 12.0 | 23.0 | 0.00 | 0.00 | 0.00 | 75 | |
| 20260505194344 | 54 | 360 | 14.0 | 24.0 | 0.00 | 0.00 | 0.00 | 75 | |
| 20260505193841 | 53 | 360 | 16.0 | 24.0 | 0.00 | 0.00 | 0.00 | 75 | |
| 20260505193339 | 53 | 360 | 17.0 | 29.0 | 0.00 | 0.00 | 0.00 | 75 | |
| 20260505192837 | 53 | 360 | 19.0 | 30.0 | 0.00 | 0.00 | 0.00 | 75 | |
| 20260505192333 | 53 | 360 | 19.0 | 30.0 | 0.00 | 0.00 | 0.00 | 75 | |
| 20260505191830 | 54 | 360 | 20.0 | 29.0 | 0.00 | 0.00 | 0.00 | 75 | |
| 20260505191326 | 54 | 360 | 17.0 | 27.0 | 0.00 | 0.00 | 0.00 | 75 | |
| 20260505190844 | 54 | 360 | 18.0 | 27.0 | 0.00 | 0.00 | 0.00 | 75 | |
| 20260505190345 | 55 | 360 | 15.0 | 24.0 | 0.00 | 0.00 | 0.00 | 75 | |
| 20260505185904 | 55 | 360 | 14.0 | 23.0 | 0.00 | 0.00 | 0.00 | 75 | |
| 20260505185340 | 55 | 360 | 17.0 | 28.0 | 0.00 | 0.00 | 0.00 | 75 | |
| 20260505184838 | 55 | 360 | 18.0 | 28.0 | 0.00 | 0.00 | 0.00 | 75 | |
| 20260505184335 | 55 | 360 | 16.0 | 26.0 | 0.00 | 0.00 | 0.00 | 75 | |
| 20260505183832 | 55 | 360 | 17.0 | 27.0 | 0.00 | 0.00 | 0.00 | 75 | |
| 20260505183328 | 55 | 360 | 19.0 | 27.0 | 0.00 | 0.00 | 0.00 | 75 | |
| 20260505182847 | 55 | 360 | 17.0 | 27.0 | 0.00 | 0.00 | 0.00 | 75 | |
| 20260505182344 | 55 | 360 | 16.0 | 27.0 | 0.00 | 0.00 | 0.00 | 75 | |
| 20260505181841 | 55 | 360 | 18.0 | 26.0 | 0.00 | 0.00 | 0.00 | 75 | |
| 20260505181338 | 55 | 360 | 17.0 | 26.0 | 0.00 | 0.00 | 0.00 | 75 | |
| 20260505180837 | 55 | 360 | 16.0 | 24.0 | 0.00 | 0.00 | 0.00 | 75 | |
| 20260505180354 | 55 | 360 | 18.0 | 24.0 | 0.00 | 0.00 | 0.00 | 75 | |
| 20260505175852 | 55 | 360 | 14.0 | 28.0 | 0.00 | 0.00 | 0.00 | 75 | |
| 20260505175408 | 55 | 360 | 18.0 | 28.0 | 0.00 | 0.00 | 0.00 | 74 | |
| 20260505174845 | 56 | 360 | 16.0 | 24.0 | 0.00 | 0.00 | 0.00 | 74 | |
| 20260505174402 | 56 | 360 | 15.0 | 25.0 | 0.00 | 0.00 | 0.00 | 74 | |
| 20260505173838 | 56 | 360 | 17.0 | 25.0 | 0.00 | 0.00 | 0.00 | 74 | |
| 20260505173335 | 57 | 360 | 15.0 | 25.0 | 0.00 | 0.00 | 0.00 | 74 | |
| 20260505172832 | 57 | 360 | 16.0 | 28.0 | 0.00 | 0.00 | 0.00 | 73 | |
| 20260505172332 | 57 | 360 | 18.0 | 28.0 | 0.00 | 0.00 | 0.00 | 73 | |
| 20260505171830 | 57 | 360 | 17.0 | 25.0 | 0.00 | 0.00 | 0.00 | 73 | |
| 20260505171326 | 58 | 360 | 18.0 | 25.0 | 0.00 | 0.00 | 0.00 | 73 | |
| 20260505170845 | 58 | 360 | 14.0 | 25.0 | 0.00 | 0.00 | 0.00 | 73 | |
| 20260505170342 | 58 | 350 | 17.0 | 26.0 | 0.00 | 0.00 | 0.00 | 73 | |
| 20260505165859 | 58 | 21 | 19.0 | 26.0 | 0.00 | 0.00 | 0.00 | 73 | |
| 20260505165335 | 58 | 355 | 17.0 | 25.0 | 0.00 | 0.00 | 0.00 | 72 | |
| 20260505164831 | 59 | 13 | 17.0 | 25.0 | 0.00 | 0.00 | 0.00 | 73 | |
| 20260505164329 | 59 | 360 | 17.0 | 25.0 | 0.00 | 0.00 | 0.00 | 73 | |
| 20260505163846 | 59 | 19 | 17.0 | 24.0 | 0.00 | 0.00 | 0.00 | 74 | |
| 20260505163344 | 59 | 18 | 17.0 | 27.0 | 0.00 | 0.00 | 0.00 | 73 | |
| 20260505162902 | 59 | 23 | 18.0 | 27.0 | 0.00 | 0.00 | 0.00 | 73 | |
| 20260505162344 | 59 | 360 | 19.0 | 26.0 | 0.00 | 0.00 | 0.00 | 73 | |
| 20260505161841 | 59 | 360 | 19.0 | 27.0 | 0.00 | 0.00 | 0.00 | 73 | |
| 20260505161338 | 59 | 11 | 17.0 | 27.0 | 0.00 | 0.00 | 0.00 | 74 | |
| 20260505160836 | 59 | 30 | 18.0 | 28.0 | 0.00 | 0.00 | 0.00 | 74 | |
| 20260505160333 | 59 | 31 | 19.0 | 28.0 | 0.00 | 0.00 | 0.00 | 73 | |
| 20260505152840 | 59 | 26 | 15.0 | 29.0 | 0.00 | 0.00 | 0.00 | 74 | |
| 20260505152356 | 59 | 360 | 15.0 | 29.0 | 0.00 | 0.00 | 0.00 | 74 | |
| 20260505151833 | 59 | 19 | 16.0 | 32.0 | 0.00 | 0.00 | 0.00 | 74 | |
| 20260505151329 | 59 | 360 | 19.0 | 32.0 | 0.00 | 0.00 | 0.00 | 74 | |
| 20260505150907 | 59 | 360 | 16.0 | 28.0 | 0.00 | 0.00 | 0.00 | 74 | |
| 20260505150403 | 59 | 360 | 19.0 | 28.0 | 0.00 | 0.00 | 0.00 | 74 | |
| 20260505140348 | 66 | 355 | 14.0 | 23.0 | 0.00 | 0.00 | 0.00 | 67 | |
| 20260505124851 | 65 | 360 | 4.0 | 8.0 | 0.00 | 0.00 | 0.00 | 73 | |
| 20260505124347 | 65 | 360 | 3.0 | 8.0 | 0.00 | 0.00 | 0.00 | 73 | |
| 20260505123844 | 65 | 360 | 3.0 | 7.0 | 0.00 | 0.00 | 0.00 | 72 | |
| 20260505123341 | 66 | 360 | 2.0 | 7.0 | 0.00 | 0.00 | 0.00 | 71 | |
| 20260505122859 | 66 | 360 | 1.0 | 4.0 | 0.00 | 0.00 | 0.00 | 71 | |
| 20260505122335 | 66 | 360 | 2.0 | 4.0 | 0.00 | 0.00 | 0.00 | 71 | |
| 20260505121835 | 66 | 360 | 2.0 | 4.0 | 0.00 | 0.00 | 0.00 | 71 | |
| 20260505121333 | 66 | 360 | 1.0 | 5.0 | 0.00 | 0.00 | 0.00 | 71 | |
| 20260505120831 | 66 | 360 | 2.0 | 5.0 | 0.00 | 0.00 | 0.00 | 71 | |
| 20260505120409 | 66 | 360 | 3.0 | 6.0 | 0.00 | 0.00 | 0.00 | 71 | |
| 20260505115847 | 66 | 360 | 2.0 | 5.0 | 0.00 | 0.00 | 0.00 | 70 | |
| 20260505115403 | 66 | 360 | 2.0 | 3.0 | 0.00 | 0.00 | 0.00 | 70 | |
| 20260505114839 | 66 | 360 | 2.0 | 6.0 | 0.00 | 0.00 | 0.00 | 70 | |
| 20260505114337 | 66 | 360 | 3.0 | 6.0 | 0.00 | 0.00 | 0.00 | 70 | |
| 20260505113834 | 67 | 360 | 2.0 | 5.0 | 0.00 | 0.00 | 0.00 | 70 | |
| 20260505113331 | 67 | 360 | 3.0 | 5.0 | 0.00 | 0.00 | 0.00 | 70 | |
| 20260505112829 | 67 | 360 | 2.0 | 4.0 | 0.00 | 0.00 | 0.00 | 69 | |
| 20260505112327 | 68 | 360 | 2.0 | 7.0 | 0.00 | 0.00 | 0.00 | 69 | |
| 20260505111905 | 68 | 360 | 4.0 | 7.0 | 0.00 | 0.00 | 0.00 | 70 | |
| 20260505111341 | 67 | 360 | 2.0 | 4.0 | 0.00 | 0.00 | 0.00 | 70 | |
| 20260505110839 | 67 | 360 | 0.0 | 4.0 | 0.00 | 0.00 | 0.00 | 71 | |
| 20260505110336 | 67 | 360 | 1.0 | 3.0 | 0.00 | 0.00 | 0.00 | 71 | |
| 20260505101836 | 68 | 360 | 4.0 | 6.0 | 0.00 | 0.00 | 0.00 | 73 | |
| 20260505101332 | 68 | 360 | 3.0 | 7.0 | 0.00 | 0.00 | 0.00 | 73 | |
| 20260505100829 | 68 | 360 | 4.0 | 8.0 | 0.00 | 0.00 | 0.00 | 73 | |
| 20260505100347 | 68 | 360 | 5.0 | 8.0 | 0.00 | 0.00 | 0.00 | 73 | |
| 20260505095845 | 68 | 360 | 3.0 | 7.0 | 0.00 | 0.00 | 0.00 | 73 | |
| 20260505095402 | 68 | 360 | 4.0 | 7.0 | 0.00 | 0.00 | 0.00 | 74 | |
| 20260505094843 | 68 | 360 | 2.0 | 5.0 | 0.00 | 0.00 | 0.00 | 74 | |
| 20260505094340 | 68 | 360 | 3.0 | 6.0 | 0.00 | 0.00 | 0.00 | 74 | |
| 20260505093838 | 68 | 360 | 3.0 | 6.0 | 0.00 | 0.00 | 0.00 | 74 | |
| 20260505093356 | 68 | 360 | 2.0 | 5.0 | 0.00 | 0.00 | 0.00 | 74 | |
| 20260505092832 | 68 | 360 | 3.0 | 6.0 | 0.00 | 0.00 | 0.00 | 73 | |
| 20260505092332 | 68 | 360 | 3.0 | 7.0 | 0.00 | 0.00 | 0.00 | 73 | |
| 20260505091830 | 69 | 360 | 3.0 | 8.0 | 0.00 | 0.00 | 0.00 | 73 | |
| 20260505091327 | 69 | 360 | 5.0 | 8.0 | 0.00 | 0.00 | 0.00 | 74 | |
| 20260505090904 | 69 | 360 | 4.0 | 8.0 | 0.00 | 0.00 | 0.00 | 73 | |
| 20260505090340 | 69 | 360 | 4.0 | 8.0 | 0.00 | 0.00 | 0.00 | 73 | |
| 20260505085838 | 69 | 360 | 4.0 | 8.0 | 0.00 | 0.00 | 0.00 | 73 | |
| 20260505085334 | 69 | 360 | 4.0 | 8.0 | 0.00 | 0.00 | 0.00 | 73 | |
| 20260505084831 | 69 | 360 | 3.0 | 7.0 | 0.00 | 0.00 | 0.00 | 73 | |
| 20260505084350 | 69 | 360 | 3.0 | 8.0 | 0.00 | 0.00 | 0.00 | 73 | |
| 20260505083847 | 69 | 360 | 3.0 | 8.0 | 0.00 | 0.00 | 0.00 | 73 | |
| 20260505083346 | 69 | 360 | 4.0 | 8.0 | 0.00 | 0.00 | 0.00 | 73 | |
| 20260505082843 | 69 | 360 | 4.0 | 7.0 | 0.00 | 0.00 | 0.00 | 73 | |
| 20260505082359 | 70 | 360 | 3.0 | 7.0 | 0.00 | 0.00 | 0.00 | 73 | |
| 20260505081857 | 70 | 360 | 4.0 | 7.0 | 0.00 | 0.00 | 0.00 | 73 | |
| 20260505081333 | 70 | 360 | 4.0 | 7.0 | 0.00 | 0.00 | 0.00 | 73 | |
| 20260505080832 | 70 | 360 | 3.0 | 8.0 | 0.00 | 0.00 | 0.00 | 73 | |
| 20260505080349 | 70 | 360 | 4.0 | 8.0 | 0.00 | 0.00 | 0.00 | 73 | |
| 20260505075846 | 70 | 360 | 4.0 | 12.0 | 0.00 | 0.00 | 0.00 | 73 | |
| 20260505075343 | 70 | 360 | 5.0 | 12.0 | 0.00 | 0.00 | 0.00 | 73 | |
| 20260505074840 | 71 | 360 | 4.0 | 9.0 | 0.00 | 0.00 | 0.00 | 73 | |
| 20260505074341 | 71 | 360 | 5.0 | 10.0 | 0.00 | 0.00 | 0.00 | 73 | |
| 20260505073839 | 71 | 360 | 6.0 | 10.0 | 0.00 | 0.00 | 0.00 | 73 | |
| 20260505073336 | 71 | 360 | 5.0 | 13.0 | 0.00 | 0.00 | 0.00 | 73 | |
| 20260505072834 | 71 | 360 | 5.0 | 10.0 | 0.00 | 0.00 | 0.00 | 73 | |
| 20260505072330 | 71 | 360 | 5.0 | 9.0 | 0.00 | 0.00 | 0.00 | 73 | |
| 20260505071827 | 71 | 360 | 5.0 | 9.0 | 0.00 | 0.00 | 0.00 | 73 | |
| 20260505071345 | 71 | 360 | 5.0 | 9.0 | 0.00 | 0.00 | 0.00 | 73 | |
| 20260505070842 | 71 | 360 | 5.0 | 11.0 | 0.00 | 0.00 | 0.00 | 73 | |
| 20260505070340 | 71 | 360 | 5.0 | 9.0 | 0.00 | 0.00 | 0.00 | 73 | |
| 20260505065838 | 71 | 360 | 5.0 | 10.0 | 0.00 | 0.00 | 0.00 | 73 | |
| 20260505065334 | 71 | 360 | 5.0 | 10.0 | 0.00 | 0.00 | 0.00 | 73 | |
| 20260505064830 | 71 | 360 | 5.0 | 10.0 | 0.00 | 0.00 | 0.00 | 73 | |
| 20260505064348 | 71 | 360 | 5.0 | 10.0 | 0.00 | 0.00 | 0.00 | 73 | |
| 20260505063846 | 71 | 360 | 4.0 | 10.0 | 0.00 | 0.00 | 0.00 | 73 | |
| 20260505063343 | 71 | 360 | 5.0 | 12.0 | 0.00 | 0.00 | 0.00 | 73 | |
| 20260505062846 | 71 | 360 | 5.0 | 12.0 | 0.00 | 0.00 | 0.00 | 73 | |
| 20260505062342 | 72 | 360 | 6.0 | 12.0 | 0.00 | 0.00 | 0.00 | 73 | |
| 20260505061840 | 72 | 360 | 6.0 | 12.0 | 0.00 | 0.00 | 0.00 | 73 | |
| 20260505061338 | 72 | 360 | 6.0 | 13.0 | 0.00 | 0.00 | 0.00 | 73 | |
| 20260505060834 | 72 | 360 | 7.0 | 13.0 | 0.00 | 0.00 | 0.00 | 73 | |
| 20260505060354 | 72 | 360 | 7.0 | 12.0 | 0.00 | 0.00 | 0.00 | 73 | |
| 20260505055851 | 72 | 360 | 7.0 | 13.0 | 0.00 | 0.00 | 0.00 | 73 | |
| 20260505055347 | 72 | 360 | 6.0 | 13.0 | 0.00 | 0.00 | 0.00 | 72 | |
| 20260505054844 | 72 | 360 | 7.0 | 13.0 | 0.00 | 0.00 | 0.00 | 72 | |
| 20260505054402 | 72 | 360 | 7.0 | 13.0 | 0.00 | 0.00 | 0.00 | 72 | |
| 20260505053838 | 73 | 360 | 5.0 | 13.0 | 0.00 | 0.00 | 0.00 | 72 | |
| 20260505053335 | 73 | 360 | 6.0 | 11.0 | 0.00 | 0.00 | 0.00 | 72 | |
| 20260505052834 | 73 | 360 | 6.0 | 14.0 | 0.00 | 0.00 | 0.00 | 72 | |
| 20260505052331 | 73 | 360 | 7.0 | 14.0 | 0.00 | 0.00 | 0.00 | 72 | |
| 20260505051829 | 73 | 360 | 7.0 | 12.0 | 0.00 | 0.00 | 0.00 | 72 | |
| 20260505051345 | 73 | 360 | 7.0 | 12.0 | 0.00 | 0.00 | 0.00 | 72 | |
| 20260505050903 | 73 | 360 | 6.0 | 14.0 | 0.00 | 0.00 | 0.00 | 72 | |
| 20260505050330 | 73 | 360 | 7.0 | 13.0 | 0.00 | 0.00 | 0.00 | 72 | |
| 20260505041345 | 74 | 360 | 8.0 | 14.0 | 0.00 | 0.00 | 0.00 | 70 | |
| 20260505040843 | 74 | 360 | 6.0 | 16.0 | 0.00 | 0.00 | 0.00 | 70 | |
| 20260505040340 | 74 | 360 | 8.0 | 16.0 | 0.00 | 0.00 | 0.00 | 69 | |
| 20260505035838 | 75 | 360 | 6.0 | 13.0 | 0.00 | 0.00 | 0.00 | 69 | |
| 20260505035334 | 75 | 360 | 6.0 | 14.0 | 0.00 | 0.00 | 0.00 | 68 | |
| 20260505034832 | 75 | 360 | 8.0 | 14.0 | 0.00 | 0.00 | 0.00 | 68 | |
| 20260505034329 | 75 | 360 | 8.0 | 14.0 | 0.00 | 0.00 | 0.00 | 68 | |
| 20260505033847 | 75 | 360 | 7.0 | 14.0 | 0.00 | 0.00 | 0.00 | 68 | |
| 20260505033345 | 75 | 360 | 6.0 | 14.0 | 0.00 | 0.00 | 0.00 | 68 | |
| 20260505032903 | 75 | 360 | 6.0 | 18.0 | 0.00 | 0.00 | 0.00 | 67 | |
| 20260505032338 | 76 | 360 | 9.0 | 18.0 | 0.00 | 0.00 | 0.00 | 67 | |
| 20260505031856 | 76 | 360 | 7.0 | 13.0 | 0.00 | 0.00 | 0.00 | 67 | |
| 20260505031332 | 76 | 360 | 7.0 | 19.0 | 0.00 | 0.00 | 0.00 | 66 | |
| 20260505030834 | 76 | 360 | 7.0 | 19.0 | 0.00 | 0.00 | 0.00 | 66 | |
| 20260505030332 | 76 | 360 | 9.0 | 18.0 | 0.00 | 0.00 | 0.00 | 66 | |
| 20260505025849 | 76 | 360 | 8.0 | 14.0 | 0.00 | 0.00 | 0.00 | 66 | |
| 20260505025346 | 77 | 360 | 7.0 | 17.0 | 0.00 | 0.00 | 0.00 | 65 | |
| 20260505024843 | 77 | 360 | 8.0 | 17.0 | 0.00 | 0.00 | 0.00 | 65 | |
| 20260505024340 | 77 | 360 | 6.0 | 17.0 | 0.00 | 0.00 | 0.00 | 65 | |
| 20260505023837 | 77 | 360 | 6.0 | 17.0 | 0.00 | 0.00 | 0.00 | 65 | |
| 20260505023334 | 77 | 360 | 8.0 | 15.0 | 0.00 | 0.00 | 0.00 | 64 | |
| 20260505022832 | 77 | 360 | 7.0 | 15.0 | 0.00 | 0.00 | 0.00 | 63 | |
| 20260505022349 | 77 | 360 | 8.0 | 18.0 | 0.00 | 0.00 | 0.00 | 63 | |
| 20260505021844 | 78 | 360 | 8.0 | 18.0 | 0.00 | 0.00 | 0.00 | 63 | |
| 20260505021342 | 78 | 360 | 8.0 | 16.0 | 0.00 | 0.00 | 0.00 | 62 | |
| 20260505020859 | 78 | 360 | 7.0 | 16.0 | 0.00 | 0.00 | 0.00 | 62 | |
| 20260505020336 | 78 | 360 | 7.0 | 15.0 | 0.00 | 0.00 | 0.00 | 61 | |
| 20260505015835 | 78 | 360 | 9.0 | 15.0 | 0.00 | 0.00 | 0.00 | 61 | |
| 20260505015332 | 78 | 360 | 8.0 | 14.0 | 0.00 | 0.00 | 0.00 | 61 | |
| 20260505014909 | 78 | 360 | 8.0 | 14.0 | 0.00 | 0.00 | 0.00 | 61 | |
| 20260505014345 | 79 | 360 | 8.0 | 20.0 | 0.00 | 0.00 | 0.00 | 61 | |
| 20260505013842 | 79 | 360 | 9.0 | 20.0 | 0.00 | 0.00 | 0.00 | 60 | |
| 20260505013344 | 79 | 360 | 8.0 | 17.0 | 0.00 | 0.00 | 0.00 | 59 | |
| 20260505012901 | 79 | 360 | 8.0 | 18.0 | 0.00 | 0.00 | 0.00 | 60 | |
| 20260505012337 | 79 | 360 | 8.0 | 17.0 | 0.00 | 0.00 | 0.00 | 59 | |
| 20260505011834 | 80 | 360 | 9.0 | 19.0 | 0.00 | 0.00 | 0.00 | 58 | |
| 20260505011333 | 80 | 360 | 9.0 | 31.0 | 0.00 | 0.00 | 0.00 | 57 | |
| 20260505010831 | 80 | 360 | 13.0 | 31.0 | 0.00 | 0.00 | 0.00 | 55 | |
| 20260505010348 | 81 | 360 | 13.0 | 31.0 | 0.00 | 0.00 | 0.00 | 52 | |
| 20260505005847 | 81 | 360 | 9.0 | 22.0 | 0.00 | 0.00 | 0.00 | 55 | |
| 20260505005343 | 81 | 360 | 12.0 | 22.0 | 0.00 | 0.00 | 0.00 | 55 | |
| 20260505004840 | 81 | 360 | 9.0 | 18.0 | 0.00 | 0.00 | 0.00 | 55 | |
| 20260505004357 | 81 | 360 | 12.0 | 18.0 | 0.00 | 0.00 | 0.00 | 55 | |
| 20260505003834 | 81 | 360 | 10.0 | 24.0 | 0.00 | 0.00 | 0.00 | 55 | |
| 20260505003331 | 81 | 360 | 11.0 | 24.0 | 0.00 | 0.00 | 0.00 | 55 | |
| 20260505002829 | 81 | 360 | 10.0 | 24.0 | 0.00 | 0.00 | 0.00 | 55 | |
| 20260505002345 | 82 | 360 | 11.0 | 24.0 | 0.00 | 0.00 | 0.00 | 55 | |
| 20260505001842 | 82 | 360 | 11.0 | 21.0 | 0.00 | 0.00 | 0.00 | 55 | |
| 20260505001340 | 82 | 360 | 12.0 | 24.0 | 0.00 | 0.00 | 0.00 | 55 | |
| 20260505000842 | 82 | 360 | 8.0 | 24.0 | 0.00 | 0.00 | 0.00 | 55 | |
| 20260505000358 | 82 | 360 | 7.0 | 21.0 | 0.00 | 0.00 | 0.00 | 54 | |
| 20260504235835 | 82 | 360 | 12.0 | 23.0 | 0.00 | 0.00 | 0.00 | 54 | |
| 20260504235332 | 83 | 360 | 13.0 | 23.0 | 0.00 | 0.00 | 0.00 | 52 | |
| 20260504234830 | 84 | 360 | 11.0 | 22.0 | 0.00 | 0.00 | 0.00 | 51 | |
| 20260504234347 | 83 | 360 | 10.0 | 22.0 | 0.00 | 0.00 | 0.00 | 51 | |
| 20260504233846 | 83 | 360 | 8.0 | 21.0 | 0.00 | 0.00 | 0.00 | 53 | |
| 20260504233343 | 83 | 360 | 12.0 | 21.0 | 0.00 | 0.00 | 0.00 | 53 | |
| 20260504232841 | 83 | 360 | 11.0 | 19.0 | 0.00 | 0.00 | 0.00 | 52 | |
| 20260504232338 | 83 | 360 | 9.0 | 22.0 | 0.00 | 0.00 | 0.00 | 52 | |
| 20260504231836 | 83 | 360 | 12.0 | 22.0 | 0.00 | 0.00 | 0.00 | 52 | |
| 20260504231333 | 84 | 360 | 9.0 | 22.0 | 0.00 | 0.00 | 0.00 | 51 | |
| 20260504230831 | 84 | 360 | 11.0 | 22.0 | 0.00 | 0.00 | 0.00 | 50 | |
| 20260504230349 | 85 | 360 | 8.0 | 27.0 | 0.00 | 0.00 | 0.00 | 49 | |
| 20260504225847 | 85 | 360 | 9.0 | 27.0 | 0.00 | 0.00 | 0.00 | 49 | |
| 20260504225343 | 86 | 360 | 14.0 | 26.0 | 0.00 | 0.00 | 0.00 | 48 | |
| 20260504224901 | 86 | 360 | 11.0 | 26.0 | 0.00 | 0.00 | 0.00 | 47 | |
| 20260504224340 | 86 | 360 | 16.0 | 26.0 | 0.00 | 0.00 | 0.00 | 46 | |
| 20260504223838 | 86 | 360 | 15.0 | 25.0 | 0.00 | 0.00 | 0.00 | 47 | |
| 20260504223335 | 86 | 360 | 13.0 | 21.0 | 0.00 | 0.00 | 0.00 | 45 | |
| 20260504222834 | 88 | 360 | 10.0 | 18.0 | 0.00 | 0.00 | 0.00 | 44 | |
| 20260504222329 | 88 | 360 | 9.0 | 23.0 | 0.00 | 0.00 | 0.00 | 44 | |
| 20260504221827 | 87 | 360 | 11.0 | 31.0 | 0.00 | 0.00 | 0.00 | 42 | |
| 20260504221346 | 87 | 360 | 14.0 | 25.0 | 0.00 | 0.00 | 0.00 | 44 | |
| 20260504220843 | 88 | 360 | 11.0 | 20.0 | 0.00 | 0.00 | 0.00 | 43 | |
| 20260504220339 | 88 | 360 | 11.0 | 21.0 | 0.00 | 0.00 | 0.00 | 42 | |
| 20260504215837 | 88 | 360 | 13.0 | 22.0 | 0.00 | 0.00 | 0.00 | 40 | |
| 20260504215354 | 89 | 360 | 12.0 | 22.0 | 0.00 | 0.00 | 0.00 | 39 | |
| 20260504214830 | 89 | 360 | 9.0 | 27.0 | 0.00 | 0.00 | 0.00 | 37 | |
| 20260504214408 | 89 | 360 | 14.0 | 27.0 | 0.00 | 0.00 | 0.00 | 37 |